Regional Weather Roundup
Issued by NWS

Home | Current Version | Previous Version | Graphics & Text | Print | Product List | Glossary On
Versions: 1 2 3 4 5 6 7 8 9 10 11 12 13 14 15 16 17 18 19 20 21 22 23 24 25 26 27 28 29 30 31 32 33 34 35 36 37 38 39 40 41 42 43 44 45 46 47 48 49 50
234
ASUS45 KBOU 050707
RWRCO

WEATHER ROUNDUP FOR COLORADO
NATIONAL WEATHER SERVICE DENVER/BOULDER CO
100 AM MDT THU MAY 05 2016

NOTE: "FAIR" INDICATES FEW OR NO CLOUDS BELOW 12000 FEET WITH NO
SIGNIFICANT WEATHER AND/OR OBSTRUCTIONS TO VISIBILITY.

COZ001>005-013-030-031-050800-
...NORTHWEST COLORADO...

CITY           SKY/WX    TMP DP  RH WIND       PRES   REMARKS
CRAIG          FAIR      40  35  83 E3        30.18S
HAYDEN         FAIR      46  30  53 E10       30.20S
MEEKER         FAIR      46  30  53 E9        30.20S
MOUNT WERNER   NOT AVBL
STEAMBOAT SPGS FAIR      44  28  53 CALM      30.23R
WALDEN         FAIR      37  21  52 SE5       30.30R
$$

COZ006>008-011-050800-
...WEST CENTRAL VALLEYS...

CITY           SKY/WX    TMP DP  RH WIND       PRES   REMARKS
GRAND JUNCTION FAIR      56  34  43 E10       30.09R
MONTROSE       FAIR      53  29  39 SE9       30.19S
EAGLE          FAIR      46  28  49 CALM      30.26R
RIFLE          FAIR      51  33  50 CALM      30.17R
DELTA          NOT AVBL
NUCLA          NOT AVBL
$$

COZ017>023-064>068-050800-
...SOUTHWEST COLORADO...

CITY           SKY/WX    TMP DP  RH WIND       PRES   REMARKS
DURANGO        FAIR      44  31  60 N5        30.25R
CORTEZ         FAIR      43  30  60 CALM      30.18S
PAGOSA SPRINGS FAIR      41  28  59 CALM      30.32S
TELLURIDE      FAIR      45  24  44 SE9       30.39S
WOLF CREEK PAS FAIR      34  19  55 SW15      30.55R WCI  24
$$

COZ009-010-012-014-032>034-037-058>063-050800-
...CENTRAL COLORADO...

CITY           SKY/WX    TMP DP  RH WIND       PRES   REMARKS
ASPEN          FAIR      42  25  50 SW12      30.29R
BUENA VISTA    FAIR      41  29  61 NW6       30.32S
COPPER MTN     NOT AVBL
BERTHOUD PASS  FAIR      32  23  69 W10       30.51S WCI  24
COTTONWOOD PAS FAIR      48  21  34 SE3       30.40S
GUNNISON       FAIR      43  27  52 CALM      30.33S
KREMMLING      FAIR      36  27  69 CALM      30.29R
LEADVILLE      FAIR      34  18  52 CALM      30.39S
MONARCH PASS   FAIR      37  21  52 W12       30.61S
SALIDA         NOT AVBL
SUNLIGHT       FAIR      41  27  56 CALM      30.47S
WILKERSON PASS FAIR      36  23  60 SW3       30.50S
$$

COZ069>075-050800-
...SAN LUIS VALLEY/SANGRE DE CRISTO MOUNTAINS...

CITY           SKY/WX    TMP DP  RH WIND       PRES   REMARKS
ALAMOSA        FAIR      45  31  58 VRB3      30.28R
LA VETA PASS   FAIR      43  19  39 S15G24    30.40S
SAGUACHE       FAIR      41  30  65 NW9       30.30R
$$

COZ035-036-038>040-050800-
...NORTHERN COLORADO FRONT RANGE...

CITY           SKY/WX    TMP DP  RH WIND       PRES   REMARKS
DENVER INTL AP FAIR      49  35  58 S16       30.15S
DMNS CITY PARK   N/A     55  34  45 SE7       30.15S
AURORA         FAIR      52  35  53 S12       30.17S
FRONT RANGE AP NOT AVBL
ERIE MUNI ARPT FAIR      44  39  82 CALM      30.14S
BOULDER MUN AP FAIR      54  32  43 CALM      30.14S
CENTENNIAL     FAIR      47  35  63 S5        30.18S
BROOMFIELD     FAIR      54  34  47 NW5       30.16S
FORT COLLINS   FAIR      52  37  58 S5        30.15S
LONGMONT       FAIR      54  37  54 NW10      30.15F
$$

COZ041-046-047-076>085-087-088-050800-
...PIKES PEAK/PALMER DIVIDE AND SOUTHERN FOOTHILLS...

CITY           SKY/WX    TMP DP  RH WIND       PRES   REMARKS
COLO. SPRINGS  FAIR      50  30  46 CALM      30.23S
A. F. ACADEMY  FAIR      41  32  70 N7        30.23S
SCHRIEVER AFB  NOT AVBL
ELLICOTT       FAIR     N/A N/A N/A SE6       30.21S
FALCON         NOT AVBL
FORT CARSON    FAIR      57  32  38 W6        30.19F
LIMON          FAIR      41  38  89 CALM      30.19S
MONUMENT HILL  FAIR      46  32  57 S9        30.26S
TRINIDAD       FAIR      52  30  43 W7        30.16S
$$

COZ042>045-048>051-090-091-050800-
...NORTHEAST COLORADO...

CITY           SKY/WX    TMP DP  RH WIND       PRES   REMARKS
GREELEY ARPT   FAIR      48  39  71 N6        30.14S
AKRON          FAIR      53  40  61 S12       30.14F
BURLINGTON     FAIR      51  41  68 S13       30.15S
WRAY           NOT AVBL
STERLING       FAIR      50  41  71 SW3       30.11F
HOLYOKE        NOT AVBL
FORT MORGAN    FAIR      52  40  64 SE6       30.15S
$$

COZ086-089-092>099-050800-
...SOUTHEAST COLORADO...

CITY           SKY/WX    TMP DP  RH WIND       PRES   REMARKS
PUEBLO         FAIR      53  38  56 N7        30.13S
LA JUNTA       FAIR      60  40  47 SE8       30.11F
LAMAR          FAIR      53  43  68 E6        30.12R
SPRINGFIELD      N/A     47  41  80 SW9       30.16S
$$




USA.gov is the U.S. government's official web portal to all federal, state and local government web resources and services.